Home > Weather > Port Angeles > Past weeks

Flag for USA Weather for the Past 2 Weeks in Port Angeles, Washington, USA

Now
64 °F

Sunny.


Feels Like: 64 °F
Forecast: 51 / 68 °F
Wind: 5 mph from East

Location: William R. Fairchild International Airport

Current Time: May 5, 2016 at 5:11:18 PM

Latest Report: May 5, 2016 at 3:53 PM


Visibility: 10 mi

Pressure: 30.04 "Hg

Humidity: 45%

Dew Point: 42 °F

Location of Port AngelesLocation

Historic Weather in Port Angeles — Graph

°F

Port Angeles Temperature Yesterday

Maximum temperature yesterday: 56 °F (at 3:53 PM)
Minimum temperature yesterday: 48 °F (at 5:53 AM)
Average temperature yesterday: 52 °F

High & Low Weather Summary for the Past Weeks

 TemperatureHumidityPressure
High76 °F (Apr 20, 3:53 PM)93% (Apr 22, 6:53 AM)30.38 "Hg (Apr 22, 6:53 AM)
Low38 °F (Apr 26, 5:53 AM)31% (Apr 20, 3:53 PM)29.61 "Hg (Apr 22, 4:53 AM)
Average53 °F72%30.04 "Hg
* Reported Apr 20 3:53 PM — May 5 3:53 PM, Port Angeles, Weather by CustomWeather, © 2016

Note: Actual official high and low records may vary slightly from our data, if they occured in-between our weather recording intervals... More about our weather records

Advertising

Port Angeles Weather History for the Previous 24 Hours

Scroll right to see more
 ConditionsComfort  
Time TempWeatherWind HumidityBarometerVisibility
3:53 PM
Thu, May 5
64 °FSunny.5 mph45%30.04 "Hg10 mi
2:53 PM65 °FLight rain. Sunny.5 mph40%30.05 "Hg10 mi
1:53 PM64 °FSunny.6 mph41%30.05 "Hg10 mi
12:53 PM63 °FSunny.6 mph43%30.06 "Hg10 mi
11:53 AM61 °FSunny.6 mph42%30.07 "Hg10 mi
10:53 AM61 °FSunny.6 mph42%30.07 "Hg10 mi
9:53 AM55 °FSunny.6 mph72%30.07 "Hg7 mi
8:53 AM53 °FSunny.No wind74%30.06 "Hg7 mi
7:53 AM52 °FSunny.No wind80%30.06 "Hg7 mi
6:53 AM43 °FSunny.No wind93%30.06 "Hg7 mi
5:53 AM42 °FClear.3 mph89%30.05 "Hg7 mi
4:53 AM43 °FClear.3 mph93%30.04 "Hg8 mi
3:53 AM43 °FPassing clouds.No wind93%30.04 "Hg9 mi
2:53 AM47 °FClear.No wind86%30.03 "Hg10 mi
1:53 AM50 °FOvercast.3 mph80%30.03 "Hg10 mi
12:53 AM52 °FOvercast.6 mph75%30.03 "Hg10 mi
11:53 PM
Wed, May 4
52 °FOvercast.7 mph72%30.03 "Hg10 mi
10:53 PM51 °FOvercast.7 mph69%30.03 "Hg10 mi
9:53 PM52 °FOvercast.10 mph64%30.04 "Hg10 mi
8:53 PM52 °FOvercast.8 mph72%30.03 "Hg9 mi
7:53 PM53 °FOvercast.5 mph72%30.02 "Hg9 mi
6:53 PM52 °FOvercast.3 mph77%30.02 "Hg9 mi
5:53 PM52 °FOvercast.6 mph77%30.03 "Hg9 mi
Weather by CustomWeather, © 2016

See weather overviewHow to use our weather pages